Weather History for Brooksville, FL

Change the Weather History Date:

Sunday, November 25, 2012

  Actual Average Record
Temperature  
Mean Temperature 50 °F -  
Max Temperature 71 °F 73 °F 84 °F (2001)
Min Temperature 28 °F 47 °F 28 °F (2012)
Degree Days  
Heating Degree Days 16    
Moisture  
Dew Point 33 °F    
Average Humidity 82    
Maximum Humidity 100    
Minimum Humidity 17    
Precipitation  
Precipitation 0.00 in - - ()
Sea Level Pressure  
Sea Level Pressure 30.14 in    
Wind  
Wind Speed 1 mph (NNW)    
Max Wind Speed 12 mph    
Max Gust Speed -    
Visibility 5 miles    
Events Fog    
Averages and records for this station are not official NWS values.
T = Trace of Precipitation, MM = Missing Value Source: NWS Daily Summary

Daily Weather History Graph

Daily Weather History Graph

Search for Another Location

Airport:

Trip Planner

Search our weather history database for the weather conditions in past years. The results will help you decide how hot, cold, wet, or windy it might be!

Date:

Astronomy

Nov. 25, 2012 Rise Set
Actual Time 7:00 AM EST 5:33 PM EST
Civil Twilight 6:35 AM EST 5:58 PM EST
Nautical Twilight 6:06 AM EST 6:27 PM EST
Astronomical Twilight 5:37 AM EST 6:55 PM EST
Moon 3:41 PM EST (11/25) 4:22 AM EST (11/25)
Length of Visible Light 11h 23m
Length of Day
10h 32m
Waxing Gibbous, 93% of the Moon is Illuminated
Nov 25
Waxing Gibbous
Nov 28
Full
Dec 6
Last Quarter
Dec 13
New
Dec 20
First Quarter

Hourly Weather History & Observations

Time (EST) Temp. Dew Point Humidity Pressure Visibility Wind Dir Wind Speed Gust Speed Precip Events Conditions
12:07 AM 39.2 °F 37.4 °F 93% 30.12 in 1.2 mi Calm Calm - N/A   Clear
12:18 AM 39.2 °F 39.2 °F 100% 30.12 in 4.0 mi Calm Calm - N/A   Clear
12:31 AM 39.2 °F 37.4 °F 93% 30.13 in 1.5 mi Calm Calm - N/A   Clear
12:39 AM 37.4 °F 35.6 °F 93% 30.12 in 0.5 mi Calm Calm - N/A Fog Fog
12:50 AM 37.4 °F 37.4 °F 100% 30.12 in 2.0 mi Calm Calm - N/A   Clear
12:53 AM 37.0 °F 37.0 °F 100% 30.12 in 2.5 mi Calm Calm - N/A   Clear
12:55 AM 37.4 °F 35.6 °F 93% 30.13 in 1.2 mi Calm Calm - N/A   Clear
1:07 AM 35.6 °F 35.6 °F 100% 30.13 in 2.0 mi Calm Calm - N/A   Clear
1:15 AM 37.4 °F 35.6 °F 93% 30.13 in 9.0 mi Calm Calm - N/A   Clear
1:53 AM 37.0 °F 36.0 °F 96% 30.12 in 6.0 mi Calm Calm - N/A   Clear
1:59 AM 37.4 °F 35.6 °F 93% 30.12 in 1.5 mi Calm Calm - N/A   Clear
2:09 AM 35.6 °F 35.6 °F 100% 30.12 in 0.5 mi Calm Calm - N/A Fog Fog
2:17 AM 35.6 °F 35.6 °F 100% 30.12 in 1.8 mi Calm Calm - N/A   Clear
2:19 AM 37.4 °F 35.6 °F 93% 30.12 in 4.0 mi Calm Calm - N/A   Clear
2:47 AM 35.6 °F 33.8 °F 93% 30.12 in 1.8 mi Calm Calm - N/A   Clear
2:53 AM 37.0 °F 35.1 °F 93% 30.12 in 2.0 mi Calm Calm - N/A   Clear
3:02 AM 33.8 °F 33.8 °F 100% 30.12 in 9.0 mi Calm Calm - N/A   Clear
3:19 AM 33.8 °F 33.8 °F 100% 30.12 in 1.5 mi Calm Calm - N/A   Clear
3:35 AM 33.8 °F 32.0 °F 93% 30.12 in 1.8 mi Calm Calm - N/A   Clear
3:39 AM 35.6 °F 33.8 °F 93% 30.12 in 3.0 mi Calm Calm - N/A   Clear
3:44 AM 33.8 °F 33.8 °F 100% 30.12 in 1.8 mi Calm Calm - N/A   Clear
3:51 AM 32.0 °F 32.0 °F 100% 30.13 in 1.5 mi Calm Calm - N/A   Clear
3:53 AM 33.1 °F 32.0 °F 96% 30.12 in 2.5 mi Calm Calm - N/A   Clear
4:00 AM 32.0 °F 30.2 °F 93% 30.13 in 9.0 mi Calm Calm - N/A   Clear
4:45 AM 32.0 °F 32.0 °F 100% 30.13 in 1.8 mi Calm Calm - N/A   Clear
4:51 AM 33.8 °F 30.2 °F 87% 30.12 in 0.8 mi Calm Calm - N/A   Clear
4:52 AM 32.0 °F 30.9 °F 96% 30.12 in 0.8 mi Calm Calm - N/A   Clear
5:12 AM 33.8 °F 32.0 °F 93% 30.12 in 2.0 mi Calm Calm - N/A   Clear
5:19 AM 33.8 °F 32.0 °F 93% 30.13 in 10.0 mi Calm Calm - N/A   Clear
5:25 AM 30.2 °F 30.2 °F 100% 30.13 in 1.8 mi Calm Calm - N/A   Clear
5:32 AM 30.2 °F 28.4 °F 93% 30.13 in 1.0 mi Calm Calm - N/A   Clear
5:36 AM 32.0 °F 30.2 °F 93% 30.13 in 2.5 mi Calm Calm - N/A   Clear
5:43 AM 28.4 °F 28.4 °F 100% 30.13 in 1.5 mi Calm Calm - N/A   Clear
5:53 AM 30.0 °F 30.0 °F 100% 30.14 in 0.5 mi Calm Calm - N/A Fog Light Freezing Fog
6:04 AM 30.2 °F 30.2 °F 100% 30.14 in 1.8 mi Calm Calm - N/A   Clear
6:14 AM 30.2 °F 30.2 °F 100% 30.14 in 3.0 mi Calm Calm - N/A   Clear
6:53 AM 30.0 °F 28.0 °F 92% 30.16 in 10.0 mi Calm Calm - N/A   Clear
7:53 AM 33.1 °F 32.0 °F 96% 30.18 in 10.0 mi Calm Calm - N/A   Clear
8:53 AM 50.0 °F 37.0 °F 61% 30.19 in 10.0 mi NE 4.6 mph - N/A   Clear
9:53 AM 57.9 °F 36.0 °F 44% 30.21 in 10.0 mi NE 5.8 mph - N/A   Clear
10:53 AM 63.0 °F 30.9 °F 30% 30.20 in 10.0 mi Variable 3.5 mph - N/A   Clear
11:53 AM 66.9 °F 28.0 °F 23% 30.18 in 10.0 mi Calm Calm - N/A   Clear
12:53 PM 68.0 °F 25.0 °F 20% 30.15 in 10.0 mi Calm Calm - N/A   Clear
1:53 PM 71.1 °F 24.1 °F 17% 30.13 in 10.0 mi NNW 5.8 mph - N/A   Clear
2:53 PM 69.1 °F 30.9 °F 24% 30.12 in 10.0 mi West 11.5 mph - N/A   Clear
3:53 PM 66.9 °F 30.9 °F 26% 30.12 in 10.0 mi WNW 8.1 mph - N/A   Clear
4:53 PM 63.0 °F 30.0 °F 29% 30.12 in 10.0 mi WNW 9.2 mph - N/A   Clear
5:53 PM 55.9 °F 32.0 °F 40% 30.14 in 10.0 mi NW 5.8 mph - N/A   Clear
6:53 PM 51.1 °F 34.0 °F 52% 30.16 in 10.0 mi Calm Calm - N/A   Clear
7:53 PM 48.0 °F 36.0 °F 63% 30.17 in 10.0 mi Calm Calm - N/A   Clear
8:53 PM 41.0 °F 34.0 °F 76% 30.18 in 10.0 mi Calm Calm - N/A   Clear
9:53 PM 39.0 °F 34.0 °F 82% 30.19 in 10.0 mi Calm Calm - N/A   Clear
10:53 PM 39.0 °F 36.0 °F 89% 30.19 in 10.0 mi Calm Calm - N/A   Clear
11:53 PM 35.1 °F 32.0 °F 89% 30.19 in 10.0 mi Calm Calm - N/A   Clear